Location: St Paul
(33.9360°N, 83.4200°W)
Time: 23:02:49
(UTC-05:00)

SJ 16-02 - Pass Details

Date: 06 October 2017
Orbit: 606 x 618 km, 75.0° (Epoch: 16 December)

Event Time Altitude Azimuth Distance (km) Brightness Sun altitude
Rises 19:32:44 0° 338° (NNW) 2,867 5.0 -5.4°
Reaches altitude 10° 19:35:00 10° 334° (NNW) 1,959 4.3 -5.8°
Maximum altitude 19:39:15 53° 258° (WSW) 749 2.3 -6.7°
Drops below altitude 10° 19:43:29 10° 181° (S) 1,947 4.0 -7.6°
Sets 19:45:44 0° 177° (S) 2,847 4.7 -8.1°
